User: anonymous   Login
Location: Civry
(47.2902°N, 4.6156°E)
Time: 00:54:48
(UTC+00:00)
Language:

Cosmos 1726 - Orbit

View from above orbital plane
View from above orbital plane
View from above satellite
View from above satellite

Ground track
Ground track

The orbit data is extracted from the following two-line orbital elements,

1 16495U 86006A   20188.51886944 +.00000576 +00000-0 +21682-4 0  9990
2 16495 082.4720 031.1773 0011212 237.8432 122.1718 15.25000356885963
Epoch (UTC): 06 July 2020 12:27:10
Eccentricity: 0.0011212
inclination: 82.4720°
perigee height: 483 km
apogee height: 498 km
right ascension of ascending node: 31.1773°
argument of perigee: 237.8432°
revolutions per day: 15.25000356
mean anomaly at epoch: 122.1718°
orbit number at epoch: 88596

The dashed part of the orbit path shows where the satellite is in the earth's shadow,  

DLR